Main page
METAR-TAF:

METAR-TAF

Airports :

Asaluyeh, Iran

Persian Gulf Airport

latitude: 27-22-46N, longitude: 52-44-15E, elevation: 8 m

Current weather observation

The report was made 35 minutes ago, at 13:30 UTC
Wind 10 kt from the West/Northwest
Temperature 33°C
Humidity 46%
Pressure 1005 hPa
Visibility: 4000 m
haze

METAR: OIBP 211330Z 29010KT 4000 HZ NSC 33/20 Q1005 A2968

Time: 17:35 (14:05 UTC)


TAF: missing

Weather observations and forecasts of more than 4000 airports (METAR and TAF reports).

The available stations are represented by yellow and red dots on the map.

Hover mouse over dot to see the name of the station.

Then click to see weather observations and forecasts.

To change the map : click on the green buttons with a black cross to zoom in, on the green button with a dash to zoom out, or on the green arrows for adjacent maps.


METAR-TAF: